FW8247 Weather Reports


Display with metric or nautical units.
time (UTC)temp
F
wind
direction
speed
MPH
gust
MPH
rain 1hr
in
rain 24hr
in
rain mn
in
humidity
%
barometer
mb
20260506051214 48 96 0.0 0.0 0.00 0.00 0.00 92 1017.0
20260506050713 48 96 0.0 0.0 0.00 0.00 0.00 92 1016.9
20260506050209 48 96 0.0 0.0 0.00 0.00 0.00 92 1016.8
20260506044701 49 86 1.0 1.0 0.00 0.00 0.00 91 1016.8
20260506044157 49 105 0.0 0.0 0.00 0.00 0.00 91 1016.7
20260506043654 49 103 0.0 0.0 0.00 0.00 0.00 91 1016.6
20260506043152 49 89 0.0 0.0 0.00 0.00 0.00 91 1016.4
20260506042651 49 89 0.0 0.0 0.00 0.00 0.00 90 1016.6
20260506042149 49 96 0.0 0.0 0.00 0.00 0.00 90 1016.3
20260506041652 50 108 0.0 0.0 0.00 0.00 0.00 89 1016.6
20260506041143 50 114 0.0 0.0 0.00 0.00 0.00 89 1016.4
20260506040641 50 106 0.0 1.0 0.00 0.00 0.00 89 1016.3
20260506040138 50 91 0.0 0.0 0.00 0.00 0.00 88 1016.3
20260506035635 51 88 0.0 0.0 0.00 0.00 0.00 87 1016.3
20260506035131 51 104 0.0 0.0 0.00 0.00 0.00 86 1015.7
20260506034629 51 106 0.0 0.0 0.00 0.00 0.00 85 1015.8
20260506034125 51 90 0.0 0.0 0.00 0.00 0.00 84 1015.7
20260506033623 52 89 0.0 0.0 0.00 0.00 0.00 83 1015.7
20260506033120 52 94 0.0 0.0 0.00 0.00 0.00 82 1015.5
20260506032617 53 96 0.0 0.0 0.00 0.00 0.00 81 1015.6
20260506032114 53 99 0.0 0.0 0.00 0.00 0.00 80 1015.5
20260506031611 53 90 0.0 0.0 0.00 0.00 0.00 80 1015.2
20260506031108 53 111 0.0 0.0 0.00 0.00 0.00 80 1015.4
20260506030607 53 82 0.0 0.0 0.00 0.00 0.00 80 1015.0
20260506030103 53 97 0.0 0.0 0.00 0.00 0.00 79 1015.2
20260506025600 54 124 0.0 1.0 0.00 0.00 0.00 78 1015.1
20260506025056 54 162 2.0 2.0 0.00 0.00 0.00 78 1015.1
20260506024554 55 160 3.0 3.0 0.00 0.00 0.00 78 1015.0
20260506024050 55 143 1.0 1.0 0.00 0.00 0.00 77 1014.9
20260506023545 56 101 1.0 2.0 0.00 0.00 0.00 76 1014.8
20260506023044 57 70 1.0 1.0 0.00 0.00 0.00 73 1014.9
20260506022541 58 94 0.0 0.0 0.00 0.00 0.00 71 1014.6
20260506022038 59 113 0.0 0.0 0.00 0.00 0.00 68 1014.4
20260506021536 60 123 2.0 3.0 0.00 0.00 0.00 68 1014.4
20260506021033 60 113 1.0 1.0 0.00 0.00 0.00 65 1014.5
20260506020530 60 156 1.0 1.0 0.00 0.00 0.00 65 1014.2
20260506020027 61 146 1.0 1.0 0.00 0.00 0.00 63 1014.3
20260506015525 60 126 1.0 1.0 0.00 0.00 0.00 66 1014.2
20260506015021 59 143 1.0 2.0 0.00 0.00 0.00 67 1014.3
20260506014519 59 111 1.0 1.0 0.00 0.00 0.00 67 1014.3
20260506014009 59 94 0.0 0.0 0.00 0.00 0.00 67 1013.9
20260506013507 59 215 3.0 3.0 0.00 0.00 0.00 64 1014.2
20260506013004 61 57 1.0 2.0 0.00 0.00 0.00 60 1013.9
20260506012459 62 204 0.0 0.0 0.00 0.00 0.00 55 1014.2
20260506011956 64 73 2.0 2.0 0.00 0.00 0.00 51 1013.8
20260506011453 65 39 2.0 2.0 0.00 0.00 0.00 47 1013.8
20260506010950 64 43 2.0 3.0 0.00 0.00 0.00 47 1014.1
20260506010449 62 54 2.0 2.0 0.00 0.00 0.00 50 1013.9
20260506005944 62 56 1.0 1.0 0.00 0.00 0.00 50 1013.6
20260506005444 64 68 2.0 2.0 0.00 0.00 0.00 48 1013.7
20260506004938 65 61 0.0 0.0 0.00 0.00 0.00 46 1014.1
20260506004436 65 45 0.0 1.0 0.00 0.00 0.00 48 1013.7
20260506003932 65 11 3.0 3.0 0.00 0.00 0.00 46 1013.6
20260506003429 65 55 2.0 2.0 0.00 0.00 0.00 46 1013.8
20260506002925 65 332 3.0 5.0 0.00 0.00 0.00 46 1013.7
20260506002421 64 4 2.0 3.0 0.00 0.00 0.00 48 1013.7
20260506001917 63 67 1.0 1.0 0.00 0.00 0.00 49 1013.6
20260506001415 64 74 1.0 1.0 0.00 0.00 0.00 47 1013.3
20260506000912 64 58 2.0 3.0 0.00 0.00 0.00 47 1013.8
20260506000409 64 70 3.0 3.0 0.00 0.00 0.00 47 1013.8
20260505235905 65 61 2.0 3.0 0.00 0.00 0.00 48 1013.7
20260505235404 65 61 1.0 1.0 0.00 0.00 0.00 47 1013.6
20260505234900 64 59 0.0 1.0 0.00 0.00 0.00 48 1013.8
20260505234358 64 62 0.0 1.0 0.00 0.00 0.00 47 1013.7
20260505233854 63 68 2.0 2.0 0.00 0.00 0.00 49 1013.7
20260505233352 64 67 2.0 2.0 0.00 0.00 0.00 50 1013.8
20260505232850 65 80 3.0 5.0 0.00 0.00 0.00 48 1013.8
20260505232348 63 76 2.0 2.0 0.00 0.00 0.00 50 1013.8
20260505231844 63 299 3.0 5.0 0.00 0.00 0.00 48 1013.5
20260505231341 63 32 3.0 3.0 0.00 0.00 0.00 49 1013.8
20260505230839 65 45 3.0 5.0 0.00 0.00 0.00 49 1013.7
20260505230336 63 19 3.0 3.0 0.00 0.00 0.00 49 1013.7
20260505225833 63 62 1.0 1.0 0.00 0.00 0.00 50 1013.8
20260505225330 64 22 3.0 5.0 0.00 0.00 0.00 51 1013.6
20260505224825 63 44 2.0 3.0 0.00 0.00 0.00 50 1013.9
20260505224323 63 86 5.0 7.0 0.00 0.00 0.00 50 1013.9
20260505223820 62 48 3.0 5.0 0.00 0.00 0.00 52 1014.2
20260505223317 64 261 3.0 3.0 0.00 0.00 0.00 50 1013.9
20260505222813 62 41 2.0 5.0 0.00 0.00 0.00 53 1014.2
20260505222309 62 70 1.0 1.0 0.00 0.00 0.00 50 1014.1
20260505221806 62 59 1.0 1.0 0.00 0.00 0.00 52 1014.2
20260505221303 61 165 1.0 3.0 0.00 0.00 0.00 51 1014.3
20260505220800 62 41 7.0 10.0 0.00 0.00 0.00 50 1014.2
20260505220257 61 56 3.0 5.0 0.00 0.00 0.00 56 1014.3
20260505215755 61 68 2.0 3.0 0.00 0.00 0.00 55 1014.4
20260505215253 61 71 1.0 1.0 0.00 0.00 0.00 54 1014.3
20260505214750 61 102 3.0 3.0 0.00 0.00 0.00 54 1014.5
20260505214247 59 82 1.0 1.0 0.00 0.00 0.00 57 1014.4
20260505213745 60 62 3.0 5.0 0.00 0.00 0.00 54 1014.5
20260505213242 61 91 2.0 3.0 0.00 0.00 0.00 55 1014.6
20260505212737 60 115 3.0 5.0 0.00 0.00 0.00 55 1014.5
20260505212235 60 86 0.0 1.0 0.00 0.00 0.00 58 1014.8
20260505211732 60 65 3.0 3.0 0.00 0.00 0.00 56 1014.8
20260505211229 60 86 0.0 1.0 0.00 0.00 0.00 59 1014.5
20260505210726 59 56 3.0 5.0 0.00 0.00 0.00 58 1014.4
20260505210222 59 84 5.0 6.0 0.00 0.00 0.00 56 1014.4
20260505205720 59 70 3.0 5.0 0.00 0.00 0.00 59 1014.4
20260505205218 58 57 6.0 8.0 0.00 0.00 0.00 58 1014.6
20260505204714 59 16 3.0 3.0 0.00 0.00 0.00 61 1014.6
20260505204212 60 55 4.0 6.0 0.00 0.00 0.00 59 1014.5
20260505203709 58 73 4.0 5.0 0.00 0.00 0.00 60 1014.8
20260505203206 59 25 5.0 6.0 0.00 0.00 0.00 57 1014.4
20260505202702 57 29 4.0 7.0 0.00 0.00 0.00 61 1014.5
20260505202158 58 35 2.0 2.0 0.00 0.00 0.00 62 1014.6
20260505201654 58 99 1.0 1.0 0.00 0.00 0.00 63 1014.8
20260505201153 57 241 4.0 6.0 0.00 0.00 0.00 66 1014.5
20260505200651 57 259 5.0 6.0 0.00 0.00 0.00 64 1014.5
20260505200147 57 41 1.0 3.0 0.00 0.00 0.00 67 1014.8
20260505195643 57 72 2.0 5.0 0.00 0.00 0.00 69 1014.8
20260505195140 56 234 4.0 6.0 0.00 0.00 0.00 70 1014.6
20260505194638 55 339 4.0 6.0 0.00 0.00 0.00 72 1015.1
20260505194133 56 208 3.0 5.0 0.00 0.00 0.00 69 1014.8
20260505193630 55 271 2.0 2.0 0.00 0.00 0.00 72 1015.0
20260505193127 56 36 1.0 2.0 0.00 0.00 0.00 73 1015.0
20260505192626 55 55 2.0 3.0 0.00 0.00 0.00 75 1014.8
20260505192123 56 65 1.0 2.0 0.00 0.00 0.00 69 1014.9
20260505191622 54 39 0.0 1.0 0.00 0.00 0.00 73 1015.0
20260505191119 54 320 5.0 7.0 0.00 0.00 0.00 74 1015.2
20260505190615 54 71 1.0 2.0 0.00 0.00 0.00 74 1015.0
20260505190110 53 55 3.0 3.0 0.00 0.00 0.00 75 1015.0
20260505185607 52 137 0.0 1.0 0.00 0.00 0.00 81 1014.6
20260505185103 51 153 2.0 2.0 0.00 0.00 0.00 82 1014.9
20260505184600 51 74 1.0 2.0 0.00 0.00 0.00 81 1014.8
20260505184056 52 253 3.0 3.0 0.00 0.00 0.00 82 1015.0
20260505183553 50 93 0.0 1.0 0.00 0.00 0.00 82 1015.0
20260505183051 50 359 1.0 2.0 0.00 0.00 0.00 84 1015.0
20260505182547 50 112 0.0 0.0 0.00 0.00 0.00 82 1014.8
20260505182044 51 34 0.0 1.0 0.00 0.00 0.00 83 1014.8
20260505181541 49 112 0.0 0.0 0.00 0.00 0.00 85 1014.8
20260505181038 48 96 0.0 0.0 0.00 0.00 0.00 86 1014.9
20260505180533 48 86 0.0 0.0 0.00 0.00 0.00 87 1014.8
20260505180032 48 276 2.0 3.0 0.00 0.00 0.00 86 1014.8
20260505175532 47 133 1.0 1.0 0.00 0.00 0.00 87 1014.9
20260505175029 47 176 2.0 2.0 0.00 0.00 0.00 88 1014.8
20260505174526 46 147 1.0 2.0 0.00 0.00 0.00 89 1014.6
20260505174022 47 101 0.0 0.0 0.00 0.00 0.00 88 1014.8
20260505173519 47 79 1.0 1.0 0.00 0.00 0.00 89 1014.5
20260505173016 46 120 0.0 1.0 0.00 0.00 0.00 87 1014.6
20260505172514 46 86 0.0 0.0 0.00 0.00 0.00 91 1014.5
20260505172009 44 80 0.0 0.0 0.00 0.00 0.00 91 1014.9
20260505171505 44 99 0.0 0.0 0.00 0.00 0.00 93 1014.6
20260505171002 43 108 0.0 0.0 0.00 0.00 0.00 95 1014.8
20260505170458 42 109 0.0 0.0 0.00 0.00 0.00 96 1014.6
20260505165954 42 110 0.0 0.0 0.00 0.00 0.00 98 1014.5
20260505165450 42 124 0.0 0.0 0.00 0.00 0.00 99 1014.4
20260505164946 42 101 0.0 0.0 0.00 0.00 0.00 99 1014.2
20260505164442 41 87 0.0 0.0 0.00 0.00 0.00 99 1014.4
20260505163940 41 87 0.0 0.0 0.00 0.00 0.00 99 1014.3
20260505163439 41 91 0.0 0.0 0.00 0.00 0.00 99 1014.4
20260505162938 41 91 0.0 0.0 0.00 0.00 0.00 99 1014.3
20260505162433 40 91 0.0 0.0 0.00 0.00 0.00 99 1014.3
20260505161930 40 88 0.0 0.0 0.00 0.00 0.00 99 1014.3
20260505161426 40 110 0.0 1.0 0.00 0.00 0.00 99 1014.3
20260505160924 40 104 0.0 0.0 0.00 0.00 0.00 99 1014.1
20260505160422 40 103 0.0 0.0 0.00 0.00 0.00 99 1014.3
20260505152858 39 84 0.0 0.0 0.00 0.00 0.00 99 1013.9
20260505152350 39 82 0.0 0.0 0.00 0.00 0.00 99 1013.8
20260505151849 39 76 0.0 0.0 0.00 0.00 0.00 99 1013.7
20260505151346 39 137 0.0 0.0 0.00 0.00 0.00 99 1013.7
20260505150843 39 122 0.0 0.0 0.00 0.00 0.00 99 1013.5
20260505150340 39 90 0.0 0.0 0.00 0.00 0.00 99 1013.5
20260505140305 38 98 0.0 0.0 0.00 0.00 0.00 99 1012.9
20260505130228 38 98 0.0 0.0 0.00 0.00 0.00 99 1013.0
20260505124719 37 102 0.0 0.0 0.00 0.00 0.00 99 1012.7
20260505124215 37 102 0.0 0.0 0.00 0.00 0.00 99 1012.5
20260505123711 37 102 0.0 0.0 0.00 0.00 0.00 99 1012.3
20260505123208 37 103 0.0 0.0 0.00 0.00 0.00 99 1012.4
20260505122705 37 105 0.0 0.0 0.00 0.00 0.00 99 1012.6
20260505122202 37 109 0.0 0.0 0.00 0.00 0.00 99 1012.4
20260505121658 37 98 0.0 0.0 0.00 0.00 0.00 99 1012.6
20260505121155 37 98 0.0 0.0 0.00 0.00 0.00 99 1012.5
20260505120651 37 98 0.0 0.0 0.00 0.00 0.00 99 1012.7
20260505120147 37 102 0.0 0.0 0.00 0.00 0.00 99 1012.4
20260505115641 37 103 0.0 0.0 0.00 0.00 0.00 99 1012.5
20260505115139 37 94 0.0 0.0 0.00 0.00 0.00 99 1012.3
20260505114636 37 101 0.0 0.0 0.00 0.00 0.00 99 1012.5
20260505114132 37 101 0.0 0.0 0.00 0.00 0.00 99 1012.4
20260505113629 37 98 0.0 0.0 0.00 0.00 0.00 99 1012.3
20260505113125 37 91 0.0 0.0 0.00 0.00 0.00 99 1012.3
20260505112622 37 102 0.0 0.0 0.00 0.00 0.00 99 1012.7
20260505112120 37 98 0.0 0.0 0.00 0.00 0.00 99 1012.5
20260505111614 37 93 0.0 0.0 0.00 0.00 0.00 99 1012.6
20260505111110 37 89 0.0 0.0 0.00 0.00 0.00 99 1012.6
20260505110607 37 112 0.0 0.0 0.00 0.00 0.00 99 1012.5
20260505110104 37 112 0.0 0.0 0.00 0.00 0.00 99 1012.7
20260505102039 37 98 0.0 0.0 0.00 0.00 0.00 99 1012.6
20260505101537 37 98 0.0 0.0 0.00 0.00 0.00 99 1012.5
20260505101033 37 98 0.0 0.0 0.00 0.00 0.00 99 1012.6
20260505100530 37 98 0.0 0.0 0.00 0.00 0.00 99 1012.7
20260505100027 37 97 0.0 0.0 0.00 0.00 0.00 99 1012.7
20260505095523 37 97 0.0 0.0 0.00 0.00 0.00 99 1012.6
20260505095020 37 104 0.0 0.0 0.00 0.00 0.00 99 1013.0
20260505094516 37 90 0.0 0.0 0.00 0.00 0.00 99 1012.7
20260505094013 37 98 0.0 0.0 0.00 0.00 0.00 99 1012.9
20260505093509 37 98 0.0 0.0 0.00 0.00 0.00 99 1012.9
20260505093007 37 103 0.0 0.0 0.00 0.00 0.00 99 1013.0
20260505092504 37 110 0.0 0.0 0.00 0.00 0.00 99 1012.7
20260505092002 37 105 0.0 0.0 0.00 0.00 0.00 99 1013.1
20260505091459 37 101 0.0 0.0 0.00 0.00 0.00 99 1013.1
20260505090957 37 100 0.0 0.0 0.00 0.00 0.00 99 1013.1
20260505090455 37 106 0.0 0.0 0.00 0.00 0.00 99 1013.2
20260505085952 37 104 0.0 0.0 0.00 0.00 0.00 99 1013.1
20260505085450 37 106 0.0 0.0 0.00 0.00 0.00 99 1013.0
20260505084948 37 114 0.0 0.0 0.00 0.00 0.00 99 1013.1
20260505084446 37 103 0.0 0.0 0.00 0.00 0.00 99 1013.2
20260505083943 37 98 0.0 0.0 0.00 0.00 0.00 99 1013.5
20260505083440 37 99 0.0 0.0 0.00 0.00 0.00 99 1013.2
20260505082937 37 40 1.0 2.0 0.00 0.00 0.00 99 1013.2
20260505082432 37 80 0.0 0.0 0.00 0.00 0.00 99 1013.5
20260505081930 37 77 0.0 0.0 0.00 0.00 0.00 99 1013.2
20260505081426 37 88 0.0 0.0 0.00 0.00 0.00 99 1013.6
20260505080923 37 93 0.0 0.0 0.00 0.00 0.00 99 1013.6
20260505080419 37 70 0.0 0.0 0.00 0.00 0.00 99 1013.6
20260505075915 37 122 0.0 0.0 0.00 0.00 0.00 99 1013.2
20260505075412 37 98 0.0 0.0 0.00 0.00 0.00 99 1013.7
20260505074909 37 98 0.0 0.0 0.00 0.00 0.00 99 1013.7
20260505074406 37 94 0.0 0.0 0.00 0.00 0.00 99 1013.7
20260505073903 37 94 0.0 0.0 0.00 0.00 0.00 99 1013.6
20260505073401 37 98 0.0 0.0 0.00 0.00 0.00 99 1013.8
20260505072858 37 102 0.0 0.0 0.00 0.00 0.00 99 1013.3
20260505072354 37 111 0.0 0.0 0.00 0.00 0.00 99 1013.5
20260505071850 37 130 0.0 0.0 0.00 0.00 0.00 99 1013.5
20260505071346 37 93 0.0 0.0 0.00 0.00 0.00 99 1013.2
20260505070845 37 87 0.0 0.0 0.00 0.00 0.00 99 1013.7
20260505070341 37 98 0.0 0.0 0.00 0.00 0.00 99 1013.3
20260505065836 37 98 0.0 0.0 0.00 0.76 0.76 99 1013.3
20260505065333 37 98 0.0 0.0 0.00 0.76 0.76 99 1013.2
20260505064830 36 97 0.0 0.0 0.00 0.76 0.76 99 1013.1
20260505064327 36 109 0.0 0.0 0.00 0.76 0.76 99 1012.9
20260505063826 37 108 0.0 0.0 0.00 0.76 0.76 99 1013.0
20260505063321 37 120 0.0 0.0 0.00 0.76 0.76 99 1013.0
20260505062818 36 102 0.0 0.0 0.00 0.76 0.76 99 1013.2
20260505062316 36 109 0.0 0.0 0.00 0.76 0.76 99 1013.3
20260505061812 37 123 0.0 0.0 0.00 0.76 0.76 99 1013.2
20260505061311 37 102 0.0 0.0 0.00 0.76 0.76 99 1013.2
20260505060808 37 123 0.0 0.0 0.00 0.76 0.76 99 1013.3
20260505060304 37 110 0.0 0.0 0.00 0.76 0.76 99 1013.5
20260505055800 37 110 0.0 0.0 0.00 0.76 0.76 99 1013.7
20260505055256 37 112 0.0 0.0 0.00 0.76 0.76 99 1013.6